Weather History for Frenchville, ME

Change the Weather History Date:

Sunday, February 10, 2013

  Actual Average Record
Temperature  
Mean Temperature 15 °F 11 °F  
Max Temperature 23 °F 20 °F 37 °F (2001)
Min Temperature 7 °F 3 °F -8 °F (2000)
Degree Days  
Heating Degree Days 50    
Month to date heating degree days 624  
Since 1 July heating degree days 5731  
Cooling Degree Days 0    
Month to date cooling degree days 0  
Year to date cooling degree days 0  
Moisture  
Dew Point -3 °F    
Average Humidity 48    
Maximum Humidity 70    
Minimum Humidity 30    
Precipitation  
Precipitation 0.00 in 0.02 in 0.13 in (2005)
Month to date precipitation 0.02 0.20  
Year to date precipitation 1.00 1.96  
Snow  
Snow 0.00 in - - ()
Month to date snowfall 0.0  
Snow Depth 0.00 in    
Sea Level Pressure  
Sea Level Pressure 30.22 in    
Wind  
Wind Speed 14 mph (NW)    
Max Wind Speed 28 mph    
Max Gust Speed 37 mph    
Visibility 10 miles    
Events      
T = Trace of Precipitation, MM = Missing Value Source: NWS Daily Summary

Daily Weather History Graph

Daily Weather History Graph

Search for Another Location

Airport:

Trip Planner

Search our weather history database for the weather conditions in past years. The results will help you decide how hot, cold, wet, or windy it might be!

Date:

Astronomy

Feb. 10, 2013 Rise Set
Actual Time 6:45 AM EST 4:49 PM EST
Civil Twilight 6:13 AM EST 5:21 PM EST
Nautical Twilight 5:37 AM EST 5:57 PM EST
Astronomical Twilight 5:02 AM EST 6:33 PM EST
Moon 6:28 AM EST 5:43 PM EST
Length of Visible Light 11h 07m
Length of Day
10h 03m
New Moon, 0% of the Moon is Illuminated
Feb 10
New Moon
Feb 17
First Quarter
Feb 25
Full
Mar 4
Last Quarter
Mar 11
New

Hourly Weather History & Observations

Time (EST) Temp. Windchill Dew Point Humidity Pressure Visibility Wind Dir Wind Speed Gust Speed Precip Events Conditions
12:53 AM 9.0 °F -12.2 °F -0.0 °F 67% 30.10 in 10.0 mi NNW 25.3 mph 33.4 mph N/A   Mostly Cloudy
1:53 AM 9.0 °F -9.5 °F 1.0 °F 70% 30.12 in 10.0 mi NNW 18.4 mph 25.3 mph N/A   Partly Cloudy
2:53 AM 8.1 °F -11.2 °F -0.0 °F 70% 30.12 in 10.0 mi NNW 19.6 mph 36.8 mph N/A   Clear
3:53 AM 8.1 °F -12.6 °F -0.0 °F 70% 30.14 in 10.0 mi NNW 23.0 mph 28.8 mph N/A   Partly Cloudy
4:53 AM 8.1 °F -11.7 °F -0.9 °F 67% 30.15 in 10.0 mi NNW 20.7 mph 31.1 mph N/A   Scattered Clouds
5:53 AM 7.0 °F -14.9 °F -2.0 °F 67% 30.17 in 10.0 mi NNW 25.3 mph 35.7 mph N/A   Clear
6:53 AM 7.0 °F -13.1 °F -2.0 °F 67% 30.19 in 10.0 mi NNW 20.7 mph 34.5 mph N/A   Clear
7:53 AM 8.1 °F -10.2 °F -2.0 °F 64% 30.22 in 10.0 mi NNW 17.3 mph 25.3 mph N/A   Clear
8:53 AM 8.1 °F -10.2 °F -2.9 °F 61% 30.24 in 10.0 mi NW 17.3 mph 24.2 mph N/A   Clear
9:53 AM 10.9 °F -7.5 °F -2.9 °F 54% 30.26 in 10.0 mi NW 19.6 mph - N/A   Clear
10:53 AM 15.1 °F -3.3 °F -2.0 °F 47% 30.26 in 10.0 mi NW 23.0 mph 27.6 mph N/A   Clear
11:53 AM 19.0 °F 3.6 °F -0.9 °F 42% 30.25 in 10.0 mi NNW 18.4 mph - N/A   Clear
12:53 PM 21.0 °F 7.6 °F -2.0 °F 36% 30.24 in 10.0 mi NNW 15.0 mph 26.5 mph N/A   Clear
1:53 PM 23.0 °F 10.6 °F -2.9 °F 32% 30.23 in 10.0 mi NNW 13.8 mph 19.6 mph N/A   Clear
2:53 PM 23.0 °F 11.7 °F -2.9 °F 32% 30.24 in 10.0 mi NW 11.5 mph - N/A   Clear
3:53 PM 21.9 °F 10.4 °F -5.1 °F 30% 30.24 in 10.0 mi NW 11.5 mph 17.3 mph N/A   Clear
4:53 PM 19.9 °F 10.1 °F -7.1 °F 30% 30.25 in 10.0 mi NW 8.1 mph - N/A   Clear
5:53 PM 18.0 °F 6.9 °F -6.0 °F 35% 30.26 in 10.0 mi WNW 9.2 mph - N/A   Clear
6:53 PM 19.0 °F 11.1 °F -7.1 °F 31% 30.28 in 10.0 mi WNW 5.8 mph - N/A   Clear
7:53 PM 19.0 °F 11.1 °F -7.1 °F 31% 30.28 in 10.0 mi NW 5.8 mph - N/A   Clear
8:53 PM 16.0 °F - -7.1 °F 36% 30.27 in 10.0 mi Calm Calm - N/A   Clear
9:53 PM 17.1 °F - -7.1 °F 34% 30.26 in 10.0 mi Calm Calm - N/A   Clear
10:53 PM 12.9 °F 5.2 °F -5.1 °F 45% 30.25 in 10.0 mi WNW 4.6 mph - N/A   Clear
11:53 PM 14.0 °F 8.2 °F -5.1 °F 43% 30.24 in 10.0 mi NW 3.5 mph - N/A   Clear